Weather History for Bradford, PA

Change the Weather History Date:

Sunday, March 17, 2013

  Actual Average Record
Temperature  
Mean Temperature 24 °F 32 °F  
Max Temperature 30 °F 42 °F 76 °F (2012)
Min Temperature 19 °F 22 °F 1 °F (1981)
Degree Days  
Heating Degree Days 40 27  
Month to date heating degree days 515  
Since 1 July heating degree days 6085  
Cooling Degree Days 0 0  
Month to date cooling degree days 0  
Year to date cooling degree days 0  
Moisture  
Dew Point 14 °F    
Average Humidity 66    
Maximum Humidity 81    
Minimum Humidity 40    
Precipitation  
Precipitation 0.00 in 0.11 in 2.00 in (1973)
Month to date precipitation 1.72  
Year to date precipitation 7.36  
Sea Level Pressure  
Sea Level Pressure 30.08 in    
Wind  
Wind Speed 7 mph (NW)    
Max Wind Speed 15 mph    
Max Gust Speed 22 mph    
Visibility 8 miles    
Events Snow    
T = Trace of Precipitation, MM = Missing Value Source: NWS Daily Summary

Daily Weather History Graph

Daily Weather History Graph

Search for Another Location

Airport:

Trip Planner

Search our weather history database for the weather conditions in past years. The results will help you decide how hot, cold, wet, or windy it might be!

Date:

Astronomy

Mar. 17, 2013 Rise Set
Actual Time 7:22 AM EDT 7:23 PM EDT
Civil Twilight 6:54 AM EDT 7:51 PM EDT
Nautical Twilight 6:22 AM EDT 8:23 PM EDT
Astronomical Twilight 5:49 AM EDT 8:56 PM EDT
Moon 10:29 AM EDT (3/17) 12:34 AM EDT (3/17)
Length of Visible Light 12h 56m
Length of Day
12h 01m
Waxing Crescent, 31% of the Moon is Illuminated
Mar 17
Waxing Crescent
Mar 19
First Quarter
Mar 27
Full
Apr 3
Last Quarter
Apr 10
New

Hourly Weather History & Observations

Time (EDT) Temp. Windchill Dew Point Humidity Pressure Visibility Wind Dir Wind Speed Gust Speed Precip Events Conditions
12:01 AM 24.1 °F 18.2 °F 18.0 °F 77% 29.86 in 10.0 mi WNW 4.6 mph - N/A   Overcast
12:42 AM 23.0 °F 14.7 °F 17.1 °F 78% 29.90 in 10.0 mi WNW 6.9 mph - N/A   Overcast
12:53 AM 23.0 °F 13.1 °F 17.1 °F 78% 29.96 in 10.0 mi NW 9.2 mph - N/A   Overcast
1:53 AM 23.0 °F 13.9 °F 17.1 °F 78% 29.97 in 10.0 mi NW 8.1 mph - N/A   Overcast
2:42 AM 21.9 °F 11.0 °F 16.0 °F 78% 29.92 in 10.0 mi NNW 10.4 mph - N/A   Overcast
2:53 AM 21.0 °F 11.4 °F 15.1 °F 78% 30.00 in 10.0 mi NW 8.1 mph - N/A   Overcast
3:04 AM 21.0 °F 12.4 °F 14.0 °F 74% 29.93 in 10.0 mi NW 6.9 mph - N/A   Overcast
3:53 AM 21.0 °F - 15.1 °F 78% 30.01 in 10.0 mi Calm Calm - N/A   Overcast
4:53 AM 21.0 °F 14.6 °F 15.1 °F 78% 30.01 in 10.0 mi West 4.6 mph - N/A   Overcast
5:53 AM 21.0 °F 12.4 °F 15.1 °F 78% 30.03 in 4.0 mi WNW 6.9 mph - 0.00 in Snow Light Snow
6:07 AM 21.0 °F 12.4 °F 15.1 °F 78% 29.96 in 6.0 mi WNW 6.9 mph - 0.00 in Snow Light Snow
6:45 AM 19.9 °F 12.1 °F 14.0 °F 78% 29.97 in 10.0 mi WNW 5.8 mph - 0.00 in   Mostly Cloudy
6:53 AM 19.0 °F 11.1 °F 14.0 °F 81% 30.05 in 10.0 mi WNW 5.8 mph - 0.00 in   Mostly Cloudy
7:31 AM 19.0 °F 13.9 °F 14.0 °F 81% 30.00 in 10.0 mi West 3.5 mph - N/A   Overcast
7:53 AM 19.0 °F 13.9 °F 14.0 °F 81% 30.08 in 9.0 mi West 3.5 mph - N/A   Overcast
8:50 AM 21.2 °F 13.6 °F 15.8 °F 80% 30.03 in 2.5 mi NW 5.8 mph - 0.00 in Snow Light Snow
8:53 AM 21.9 °F 14.5 °F 16.0 °F 78% 30.11 in 2.5 mi NW 5.8 mph - 0.00 in Snow Light Snow
9:34 AM 23.0 °F 13.9 °F 16.0 °F 74% 30.05 in 3.0 mi NNW 8.1 mph - 0.00 in Snow Light Snow
9:41 AM 24.1 °F 15.2 °F 16.0 °F 71% 30.05 in 3.0 mi NNW 8.1 mph - 0.00 in Snow Light Snow
9:53 AM 24.1 °F 13.7 °F 16.0 °F 71% 30.12 in 3.0 mi NNW 10.4 mph - 0.00 in Snow Light Snow
10:27 AM 24.1 °F 11.5 °F 16.0 °F 71% 30.06 in 2.5 mi NNW 15.0 mph 21.9 mph 0.00 in Snow Light Snow
10:34 AM 24.1 °F 13.7 °F 15.1 °F 69% 30.06 in 6.0 mi NNW 10.4 mph 21.9 mph 0.00 in Snow Light Snow
10:53 AM 24.1 °F 12.0 °F 15.1 °F 69% 30.14 in 3.0 mi NNW 13.8 mph - 0.00 in Snow Light Snow
11:53 AM 25.0 °F 15.5 °F 15.1 °F 66% 30.17 in 5.0 mi NNW 9.2 mph - 0.00 in Snow Light Snow
12:26 PM 26.1 °F 16.8 °F 15.1 °F 63% 30.10 in 9.0 mi WNW 9.2 mph - 0.00 in Snow Light Snow
12:53 PM 26.1 °F 16.2 °F 15.1 °F 63% 30.18 in 8.0 mi NW 10.4 mph - 0.00 in   Overcast
1:20 PM 27.0 °F 17.3 °F 15.1 °F 61% 30.10 in 10.0 mi NW 10.4 mph - N/A   Overcast
1:31 PM 27.0 °F 19.5 °F 12.9 °F 56% 30.10 in 10.0 mi North 6.9 mph - N/A   Overcast
1:41 PM 27.0 °F 18.0 °F 12.9 °F 56% 30.10 in 10.0 mi NNW 9.2 mph - N/A   Overcast
1:49 PM 28.4 °F 19.7 °F 12.2 °F 51% 30.10 in 10.0 mi NW 9.2 mph - N/A   Overcast
1:53 PM 28.0 °F 19.3 °F 12.9 °F 53% 30.18 in 10.0 mi NW 9.2 mph - N/A   Overcast
2:53 PM 28.9 °F 21.1 °F 10.0 °F 45% 30.17 in 10.0 mi NNW 8.1 mph - N/A   Partly Cloudy
3:53 PM 30.0 °F - 8.1 °F 40% 30.17 in 10.0 mi Calm Calm - N/A   Clear
4:53 PM 30.0 °F - 9.0 °F 41% 30.17 in 10.0 mi North - - N/A   Clear
5:53 PM 30.0 °F 23.2 °F 10.0 °F 43% 30.19 in 10.0 mi NNW 6.9 mph - N/A   Clear
6:53 PM 28.9 °F 22.8 °F 9.0 °F 43% 30.21 in 10.0 mi NNW 5.8 mph - N/A   Clear
7:53 PM 27.0 °F 23.0 °F 9.0 °F 47% 30.22 in 10.0 mi North 3.5 mph - N/A   Clear
8:53 PM 25.0 °F - 9.0 °F 51% 30.24 in 10.0 mi Calm Calm - N/A   Clear
9:53 PM 23.0 °F - 8.1 °F 53% 30.26 in 10.0 mi Calm Calm - N/A   Clear
10:53 PM 23.0 °F 18.4 °F 10.0 °F 58% 30.26 in 10.0 mi NE 3.5 mph - N/A   Clear
11:53 PM 21.0 °F 16.2 °F 10.0 °F 63% 30.25 in 10.0 mi East 3.5 mph - N/A   Clear